KT2UU-13 Weather Reports


time (UTC)temp
F
wind
direction
speed
knots
gust
knots
rain 1hr
in
rain 24hr
in
rain mn
in
humidity
%
barometer
mb
20260505122144 59 135 0.0 0.0 0.00 0.00 0.00 81 1016.1
20260505121640 59 135 0.0 0.0 0.00 0.00 0.00 81 1015.9
20260505121137 60 135 0.0 0.0 0.00 0.00 0.00 79 1015.8
20260505120633 61 135 0.0 0.0 0.00 0.00 0.00 78 1015.6
20260505120130 60 135 0.0 0.0 0.00 0.00 0.00 77 1015.7
20260505115624 60 135 0.0 0.0 0.00 0.00 0.00 74 1015.8
20260505115121 61 135 0.0 0.0 0.00 0.00 0.00 75 1015.6
20260505114618 59 135 0.0 0.0 0.00 0.00 0.00 82 1015.6
20260505114114 56 135 0.0 0.0 0.00 0.00 0.00 88 1015.6
20260505113611 53 135 0.0 0.0 0.00 0.00 0.00 92 1015.7
20260505113108 52 135 0.0 0.0 0.00 0.00 0.00 92 1015.5
20260505112604 51 135 0.0 0.0 0.00 0.00 0.00 93 1015.3
20260505112103 50 135 0.0 0.0 0.00 0.00 0.00 93 1015.2
20260505111601 50 135 0.0 0.0 0.00 0.00 0.00 92 1015.3
20260505111057 50 135 0.0 0.0 0.00 0.00 0.00 92 1015.1
20260505110554 49 135 0.0 0.0 0.00 0.00 0.00 93 1015.1
20260505102027 49 135 0.0 0.0 0.00 0.00 0.00 92 1015.0
20260505101525 49 135 0.0 0.0 0.00 0.00 0.00 92 1014.9
20260505101021 49 135 0.0 0.0 0.00 0.00 0.00 92 1015.0
20260505100519 49 135 0.0 0.0 0.00 0.00 0.00 92 1014.9
20260505100015 49 135 0.0 0.0 0.00 0.00 0.00 91 1014.8
20260505095511 49 135 0.0 0.0 0.00 0.00 0.00 91 1014.8
20260505095008 49 135 0.0 0.0 0.00 0.00 0.00 92 1015.1
20260505094504 49 135 0.0 0.0 0.00 0.00 0.00 91 1015.0
20260505094001 49 135 0.0 0.0 0.00 0.00 0.00 91 1015.3
20260505093457 50 135 0.0 0.0 0.00 0.00 0.00 91 1015.3
20260505092955 50 135 0.0 0.0 0.00 0.00 0.00 91 1015.3
20260505092452 50 135 0.0 0.0 0.00 0.00 0.00 90 1015.0
20260505091950 50 135 0.0 0.0 0.00 0.00 0.00 90 1015.0
20260505091447 50 135 0.0 0.0 0.00 0.00 0.00 90 1014.7
20260505090945 50 136 0.0 0.0 0.00 0.00 0.00 90 1015.0
20260505090443 50 136 0.0 0.0 0.00 0.00 0.00 90 1015.1
20260505085940 50 136 0.0 0.0 0.00 0.00 0.00 90 1015.1
20260505085438 50 136 0.0 0.0 0.00 0.00 0.00 90 1015.0
20260505084936 50 136 0.0 0.0 0.00 0.00 0.00 89 1015.2
20260505084434 51 136 0.0 0.0 0.00 0.00 0.00 88 1015.2
20260505083931 51 146 0.0 0.0 0.00 0.00 0.00 87 1015.4
20260505083428 51 146 0.0 0.0 0.00 0.00 0.00 87 1015.4
20260505082924 51 189 0.9 1.7 0.00 0.00 0.00 86 1015.3
20260505082420 51 175 0.0 0.0 0.00 0.00 0.00 87 1015.3
20260505081918 51 117 0.0 0.0 0.00 0.00 0.00 86 1015.4
20260505081415 51 117 0.0 0.0 0.00 0.00 0.00 86 1015.2
20260505080911 52 108 0.0 0.0 0.00 0.00 0.00 85 1015.1
20260505080407 52 108 0.0 0.0 0.00 0.00 0.00 84 1015.3
20260505075903 52 108 0.0 0.0 0.00 0.00 0.00 84 1015.2
20260505075359 52 108 0.0 0.0 0.00 0.00 0.00 83 1015.1
20260505074857 52 108 0.0 0.0 0.00 0.00 0.00 83 1015.1
20260505074354 53 108 0.0 0.0 0.00 0.00 0.00 82 1015.1
20260505073851 53 108 0.0 0.0 0.00 0.00 0.00 82 1015.3
20260505073344 53 108 0.0 0.9 0.00 0.00 0.00 81 1015.1
20260505072840 54 108 0.0 0.0 0.00 0.00 0.00 80 1015.0
20260505072336 54 108 0.0 0.0 0.00 0.00 0.00 79 1015.2
20260505071832 55 108 0.0 0.0 0.00 0.00 0.00 78 1015.3
20260505071329 55 108 0.9 0.9 0.00 0.00 0.00 77 1015.2
20260505070827 55 139 0.0 0.0 0.00 0.00 0.00 76 1015.1
20260505070323 56 139 0.0 0.9 0.00 0.00 0.00 77 1015.2
20260505065818 56 139 0.0 0.0 0.00 0.00 0.00 74 1015.3
20260505065315 56 139 0.0 0.0 0.00 0.00 0.00 73 1015.2
20260505064813 56 139 0.0 0.0 0.00 0.00 0.00 70 1015.1
20260505064309 57 139 0.0 0.0 0.00 0.00 0.00 70 1015.3
20260505063808 57 139 0.0 0.0 0.00 0.00 0.00 70 1015.4
20260505063303 57 139 0.0 0.0 0.00 0.00 0.00 69 1015.3
20260505062800 58 139 0.0 0.0 0.00 0.00 0.00 69 1015.3
20260505062258 58 139 0.0 0.0 0.00 0.00 0.00 69 1015.3
20260505061754 58 139 0.0 0.0 0.00 0.00 0.00 68 1015.3
20260505061252 58 139 0.0 0.0 0.00 0.00 0.00 67 1015.4
20260505060749 58 139 0.0 0.0 0.00 0.00 0.00 66 1015.2
20260505060246 58 139 0.0 0.0 0.00 0.00 0.00 67 1015.2
20260505041336 59 139 0.0 0.0 0.00 0.00 0.00 65 1015.8
20260505040833 60 139 0.0 0.0 0.00 0.00 0.00 67 1015.6
20260505040331 61 139 0.0 0.0 0.00 0.00 0.00 65 1015.6
20260505035828 61 139 0.0 0.0 0.00 0.00 0.00 63 1015.4
20260505035323 62 139 0.0 0.0 0.00 0.00 0.00 63 1015.7
20260505034821 63 139 0.0 0.9 0.00 0.00 0.00 60 1015.6
20260505034317 63 132 0.0 0.0 0.00 0.00 0.00 59 1015.8
20260505033815 62 132 0.0 0.0 0.00 0.00 0.00 61 1015.7
20260505033311 62 132 0.0 0.0 0.00 0.00 0.00 60 1015.9
20260505032810 61 132 0.0 0.0 0.00 0.00 0.00 62 1015.7
20260505032305 61 132 0.0 0.0 0.00 0.00 0.00 63 1015.8
20260505031803 61 132 0.0 0.0 0.00 0.00 0.00 63 1015.7
20260505031259 62 132 0.0 0.0 0.00 0.00 0.00 62 1015.5
20260505030757 62 132 0.0 0.0 0.00 0.00 0.00 61 1015.7
20260505030253 63 132 0.0 0.0 0.00 0.00 0.00 61 1015.5
20260505025748 63 132 0.0 0.0 0.00 0.00 0.00 61 1015.6
20260505025246 62 132 0.0 0.0 0.00 0.00 0.00 60 1015.6
20260505024744 61 132 0.0 0.0 0.00 0.00 0.00 61 1015.6
20260505024241 62 132 0.0 0.0 0.00 0.00 0.00 61 1015.4
20260505023738 62 132 0.0 0.0 0.00 0.00 0.00 60 1015.5
20260505023236 62 132 0.0 0.0 0.00 0.00 0.00 60 1015.5
20260505022733 63 132 0.0 0.0 0.00 0.00 0.00 59 1015.5
20260505022230 62 151 0.0 0.0 0.00 0.00 0.00 60 1015.5
20260505021726 63 132 0.0 0.0 0.00 0.00 0.00 61 1015.4
20260505021223 63 151 0.0 0.0 0.00 0.00 0.00 60 1015.4
20260505020719 63 132 0.0 0.0 0.00 0.00 0.00 60 1015.3
20260505020214 63 132 0.0 0.0 0.00 0.00 0.00 62 1015.4
20260505015712 63 132 0.0 0.0 0.00 0.00 0.00 61 1015.2
20260505015209 63 132 0.0 0.0 0.00 0.00 0.00 61 1015.3
20260505014706 63 132 0.0 0.0 0.00 0.00 0.00 61 1015.1
20260505014203 63 132 0.0 0.0 0.00 0.00 0.00 61 1015.1
20260505013659 63 132 0.0 0.0 0.00 0.00 0.00 61 1015.2
20260505013157 64 132 0.0 0.0 0.00 0.00 0.00 61 1015.1
20260505012655 64 150 0.0 0.0 0.00 0.00 0.00 62 1015.1
20260505012147 64 150 0.0 0.0 0.00 0.00 0.00 62 1015.3
20260505011642 64 132 0.0 0.0 0.00 0.00 0.00 62 1014.9
20260505011140 65 132 0.0 0.0 0.00 0.00 0.00 62 1014.8
20260505010640 65 132 0.0 0.0 0.00 0.00 0.00 62 1014.9
20260505010137 65 132 0.0 0.0 0.00 0.00 0.00 60 1015.0
20260505005632 66 132 0.0 0.0 0.00 0.00 0.00 59 1014.9
20260505005130 66 132 0.0 0.0 0.00 0.00 0.00 59 1015.1
20260505004627 67 132 0.0 0.0 0.00 0.00 0.00 58 1015.0
20260505004123 68 132 0.0 0.0 0.00 0.00 0.00 58 1015.1
20260505003621 69 132 0.0 0.0 0.00 0.00 0.00 57 1014.9
20260505003118 69 132 0.0 0.0 0.00 0.00 0.00 54 1014.9
20260505002614 70 132 0.0 0.0 0.00 0.00 0.00 52 1015.0
20260505002113 71 132 0.0 0.0 0.00 0.00 0.00 50 1014.8
20260505001609 72 132 0.0 0.0 0.00 0.00 0.00 49 1014.8
20260505001107 72 132 0.0 0.0 0.00 0.00 0.00 47 1014.9
20260505000604 73 132 0.0 0.0 0.00 0.00 0.00 46 1014.8
20260504235558 74 132 0.0 0.0 0.00 0.00 0.00 46 1014.8
20260504235054 74 132 0.0 0.0 0.00 0.00 0.00 46 1014.8
20260504234551 75 132 0.0 0.0 0.00 0.00 0.00 44 1014.7
20260504234049 75 132 0.0 0.0 0.00 0.00 0.00 43 1014.7
20260504233544 76 132 0.0 0.0 0.00 0.00 0.00 44 1014.7
20260504233041 76 132 0.0 0.0 0.00 0.00 0.00 41 1014.8
20260504232538 77 132 0.0 0.0 0.00 0.00 0.00 42 1014.8
20260504232036 77 131 0.0 0.0 0.00 0.00 0.00 41 1014.8
20260504231532 77 126 0.0 0.0 0.00 0.00 0.00 41 1014.7
20260504231028 77 130 0.0 1.7 0.00 0.00 0.00 41 1015.0
20260504230524 77 130 0.9 1.7 0.00 0.00 0.00 41 1014.8
20260504230024 77 130 0.0 0.0 0.00 0.00 0.00 46 1014.7
20260504225520 78 130 0.0 0.9 0.00 0.00 0.00 44 1014.7
20260504225017 77 146 0.0 1.7 0.00 0.00 0.00 43 1014.9
20260504224514 76 130 0.0 0.0 0.00 0.00 0.00 45 1014.7
20260504224011 76 130 0.0 0.0 0.00 0.00 0.00 44 1014.8
20260504223508 76 130 0.0 0.0 0.00 0.00 0.00 43 1014.9
20260504223004 76 130 0.0 0.0 0.00 0.00 0.00 43 1014.9
20260504222500 76 130 0.0 0.9 0.00 0.00 0.00 45 1015.0
20260504221958 77 130 0.0 0.9 0.00 0.00 0.00 41 1015.1
20260504221455 77 129 0.9 0.9 0.00 0.00 0.00 42 1015.1
20260504220952 77 113 0.0 3.5 0.00 0.00 0.00 42 1014.8
20260504220448 77 107 0.0 0.0 0.00 0.00 0.00 42 1014.9
20260504215945 78 97 0.0 1.7 0.00 0.00 0.00 42 1015.0
20260504215442 78 211 0.0 0.0 0.00 0.00 0.00 43 1014.9
20260504214939 77 110 0.9 0.9 0.00 0.00 0.00 44 1014.8
20260504214435 77 115 1.7 3.5 0.00 0.00 0.00 45 1014.9
20260504213932 77 4 0.0 0.9 0.00 0.00 0.00 47 1014.8
20260504213428 77 100 0.9 1.7 0.00 0.00 0.00 44 1015.0
20260504212926 76 121 0.0 0.0 0.00 0.00 0.00 46 1015.1
20260504212421 75 120 0.9 3.5 0.00 0.00 0.00 46 1015.1
20260504211919 76 157 0.9 1.7 0.00 0.00 0.00 46 1015.1
20260504211415 77 165 0.0 1.7 0.00 0.00 0.00 44 1015.0
20260504210912 78 142 1.7 2.6 0.00 0.00 0.00 43 1014.9
20260504210409 77 146 0.9 0.9 0.00 0.00 0.00 44 1015.1
20260504205907 76 145 0.0 1.7 0.00 0.00 0.00 43 1015.0
20260504205404 76 131 0.9 3.5 0.00 0.00 0.00 42 1015.1
20260504204902 77 151 1.7 2.6 0.00 0.00 0.00 41 1015.2
20260504204400 78 147 0.9 1.7 0.00 0.00 0.00 40 1015.2
20260504203900 77 134 0.0 2.6 0.00 0.00 0.00 44 1015.1
20260504203356 77 155 0.9 5.2 0.00 0.00 0.00 43 1015.1
20260504202852 77 132 0.9 1.7 0.00 0.00 0.00 44 1015.1
20260504202349 76 174 1.7 5.2 0.00 0.00 0.00 43 1015.1
20260504201845 78 194 2.6 7.0 0.00 0.00 0.00 44 1015.3
20260504201343 79 97 0.9 1.7 0.00 0.00 0.00 43 1015.3
20260504200840 78 129 0.9 1.7 0.00 0.00 0.00 41 1015.4
20260504200337 78 124 0.0 0.9 0.00 0.00 0.00 45 1015.4
20260504195833 77 98 0.0 0.0 0.00 0.00 0.00 45 1015.4
20260504195329 77 156 1.7 1.7 0.00 0.00 0.00 42 1015.6
20260504194826 78 180 3.5 3.5 0.00 0.00 0.00 40 1015.9
20260504194322 77 217 0.0 1.7 0.00 0.00 0.00 41 1015.7
20260504193818 77 52 0.9 1.7 0.00 0.00 0.00 43 1015.9
20260504193316 77 124 2.6 3.5 0.00 0.00 0.00 43 1015.8
20260504192814 78 102 0.0 2.6 0.00 0.00 0.00 46 1015.8
20260504192312 78 18 0.0 0.0 0.00 0.00 0.00 48 1016.0
20260504191810 76 18 0.0 0.0 0.00 0.00 0.00 49 1016.1
20260504191307 76 131 0.0 0.0 0.00 0.00 0.00 46 1016.3
20260504190803 76 131 0.0 1.7 0.00 0.00 0.00 46 1016.3
20260504190259 75 145 0.0 0.0 0.00 0.00 0.00 49 1016.3
20260504185755 76 145 0.0 2.6 0.00 0.00 0.00 46 1016.5
20260504185253 74 149 0.0 1.7 0.00 0.00 0.00 46 1016.4
20260504184749 76 200 0.9 2.6 0.00 0.00 0.00 48 1016.4
20260504184244 74 169 3.5 5.2 0.00 0.00 0.00 46 1016.6
20260504183740 75 203 1.7 2.6 0.00 0.00 0.00 49 1016.6
20260504183237 75 221 1.7 5.2 0.00 0.00 0.00 47 1016.4
20260504182736 74 164 0.0 1.7 0.00 0.00 0.00 45 1016.8
20260504182232 75 142 1.7 2.6 0.00 0.00 0.00 51 1016.6
20260504181730 74 9 4.3 6.1 0.00 0.00 0.00 48 1016.8
20260504181227 74 4 0.0 0.0 0.00 0.00 0.00 49 1016.9
20260504180726 74 110 0.0 1.7 0.00 0.00 0.00 50 1016.8
20260504180225 73 219 0.0 1.7 0.00 0.00 0.00 47 1017.0
20260504175722 73 192 3.5 5.2 0.00 0.00 0.00 48 1017.0
20260504175218 72 186 1.7 1.7 0.00 0.00 0.00 49 1017.1
20260504174716 72 120 1.7 1.7 0.00 0.00 0.00 51 1017.2
20260504174214 73 119 1.7 2.6 0.00 0.00 0.00 48 1017.3
20260504173710 73 142 0.0 0.9 0.00 0.00 0.00 51 1017.2
20260504173208 72 110 0.0 0.9 0.00 0.00 0.00 50 1017.4
20260504172704 73 98 2.6 3.5 0.00 0.00 0.00 50 1017.6
20260504172200 72 250 1.7 1.7 0.00 0.00 0.00 50 1017.4
20260504171657 71 124 0.9 1.7 0.00 0.00 0.00 50 1017.5
20260504171154 71 195 3.5 6.1 0.00 0.00 0.00 49 1017.8
20260504170650 72 206 1.7 2.6 0.00 0.00 0.00 49 1017.7
20260504170148 71 6 0.0 2.6 0.00 0.00 0.00 52 1017.7
20260504151033 65 133 0.0 0.9 0.00 0.00 0.00 59 1018.7
20260504150531 64 16 0.9 1.7 0.00 0.00 0.00 61 1018.6
20260504140957 63 211 0.0 0.9 0.00 0.00 0.00 68 1019.2
20260504140454 62 348 0.0 0.9 0.00 0.00 0.00 69 1019.0
20260504130418 58 213 0.0 0.9 0.00 0.00 0.00 74 1018.9